Location: Chaumontel
(49.1247°N, 2.4324°E)
Time: 04:39:57
(UTC+00:00)

COSMOS 2428 - Pass Details

Date: 04 August 2024
Orbit: 842 x 857 km, 70.9° (Epoch: 08 September)

Event Time Altitude Azimuth Distance (km) Brightness Sun altitude
Exits shadow 03:23:41 - 203° (SSW) 2,594 4.7 -9.4°
Reaches altitude 10° 03:24:02 10° 203° (SSW) 2,461 4.6 -9.4°
Maximum altitude 03:29:42 83° 117° (ESE) 860 2.8 -8.7°
Drops below altitude 10° 03:35:25 10° 30° (NNE) 2,487 6.4 -8.0°
Sets 03:37:53 0° 30° (NNE) 3,429 7.3 -7.6°
